| time (UTC) | temp C | wind direction | speed KPH | gust KPH | rain 1hr cm | rain 24hr cm | rain mn cm | humidity % | barometer mb |
| 20260507022344 | 13 | 73 | 1.6 | 11.3 | 0.00 | 0.00 | 0.00 | 55 | 1016.3 |
| 20260507020839 | 14 | 70 | 3.2 | 14.5 | 0.00 | 0.00 | 0.00 | 54 | 1016.0 |
| 20260507015339 | 14 | 55 | 1.6 | 9.7 | 0.00 | 0.00 | 0.00 | 55 | 1015.9 |
| 20260507014544 | 14 | 52 | 1.6 | 8.0 | 0.00 | 0.00 | 0.00 | 55 | 1015.7 |
| 20260507012336 | 15 | 54 | 1.6 | 9.7 | 0.00 | 0.00 | 0.00 | 53 | 1015.4 |
| 20260507011543 | 15 | 71 | 1.6 | 14.5 | 0.00 | 0.00 | 0.00 | 51 | 1015.4 |
| 20260507005332 | 16 | 84 | 3.2 | 11.3 | 0.00 | 0.00 | 0.00 | 52 | 1015.4 |
| 20260507003832 | 16 | 37 | 3.2 | 14.5 | 0.00 | 0.00 | 0.00 | 52 | 1015.5 |
| 20260507003029 | 16 | 52 | 1.6 | 12.9 | 0.00 | 0.00 | 0.00 | 50 | 1015.3 |
| 20260507000829 | 17 | 45 | 6.4 | 16.1 | 0.00 | 0.00 | 0.00 | 49 | 1015.3 |
| 20260506235329 | 17 | 63 | 4.8 | 11.3 | 0.00 | 0.00 | 0.00 | 48 | 1015.3 |
| 20260506233829 | 17 | 35 | 4.8 | 14.5 | 0.00 | 0.00 | 0.00 | 47 | 1015.2 |
| 20260506232328 | 18 | 55 | 1.6 | 16.1 | 0.00 | 0.00 | 0.00 | 48 | 1015.2 |
| 20260506230829 | 18 | 49 | 3.2 | 9.7 | 0.00 | 0.00 | 0.00 | 48 | 1015.0 |
| 20260506225331 | 18 | 33 | 3.2 | 8.0 | 0.00 | 0.00 | 0.00 | 48 | 1015.0 |
| 20260506223829 | 17 | 91 | 4.8 | 14.5 | 0.00 | 0.00 | 0.00 | 48 | 1014.9 |
| 20260506222329 | 18 | 92 | 3.2 | 11.3 | 0.00 | 0.00 | 0.00 | 49 | 1014.7 |
| 20260506220829 | 17 | 42 | 4.8 | 17.7 | 0.00 | 0.00 | 0.00 | 51 | 1014.7 |
| 20260506215329 | 17 | 30 | 6.4 | 20.9 | 0.00 | 0.00 | 0.00 | 50 | 1014.7 |
| 20260506213829 | 17 | 70 | 4.8 | 17.7 | 0.00 | 0.00 | 0.00 | 51 | 1014.7 |
| 20260506212329 | 17 | 14 | 8.0 | 17.7 | 0.00 | 0.00 | 0.00 | 52 | 1014.9 |
| 20260506210828 | 16 | 31 | 6.4 | 17.7 | 0.00 | 0.00 | 0.00 | 52 | 1014.9 |
| 20260506210031 | 16 | 72 | 8.0 | 17.7 | 0.00 | 0.00 | 0.00 | 51 | 1015.0 |
| 20260506203830 | 17 | 40 | 6.4 | 16.1 | 0.00 | 0.00 | 0.00 | 54 | 1015.3 |
| 20260506202328 | 16 | 3 | 8.0 | 16.1 | 0.00 | 0.00 | 0.00 | 52 | 1015.2 |
| 20260506201520 | 16 | 53 | 8.0 | 20.9 | 0.00 | 0.00 | 0.00 | 54 | 1015.3 |
| 20260506195329 | 16 | 13 | 8.0 | 19.3 | 0.00 | 0.00 | 0.00 | 52 | 1015.2 |
| 20260506194524 | 16 | 53 | 8.0 | 19.3 | 0.00 | 0.00 | 0.00 | 52 | 1015.3 |
| 20260506193130 | 17 | 20 | 6.4 | 20.9 | 0.00 | 0.00 | 0.00 | 51 | 1015.3 |
| 20260506192918 | 17 | 38 | 4.8 | 14.5 | 0.00 | 0.00 | 0.00 | 49 | 1015.7 |
| 20260506190034 | 17 | 37 | 4.8 | 27.4 | 0.00 | 0.00 | 0.00 | 49 | 1015.6 |
| 20260506183831 | 16 | 105 | 6.4 | 19.3 | 0.00 | 0.00 | 0.00 | 52 | 1015.9 |
| 20260506182329 | 16 | 40 | 6.4 | 20.9 | 0.00 | 0.00 | 0.00 | 53 | 1015.9 |
| 20260506180830 | 16 | 64 | 4.8 | 19.3 | 0.00 | 0.00 | 0.00 | 51 | 1016.1 |
| 20260506175329 | 16 | 37 | 3.2 | 11.3 | 0.00 | 0.00 | 0.00 | 55 | 1016.2 |
| 20260506173829 | 15 | 62 | 4.8 | 11.3 | 0.00 | 0.00 | 0.00 | 52 | 1016.4 |
| 20260506172329 | 15 | 64 | 4.8 | 17.7 | 0.00 | 0.00 | 0.00 | 54 | 1016.3 |
| 20260506170828 | 15 | 78 | 3.2 | 19.3 | 0.00 | 0.00 | 0.00 | 57 | 1016.2 |
| 20260506165328 | 14 | 48 | 4.8 | 11.3 | 0.00 | 0.00 | 0.00 | 58 | 1016.1 |
| 20260506163829 | 13 | 42 | 4.8 | 17.7 | 0.00 | 0.00 | 0.00 | 61 | 1016.3 |
| 20260506162328 | 13 | 77 | 4.8 | 11.3 | 0.00 | 0.00 | 0.00 | 64 | 1016.3 |
| 20260506160829 | 12 | 73 | 4.8 | 17.7 | 0.00 | 0.00 | 0.00 | 66 | 1016.2 |
| 20260506155330 | 11 | 50 | 4.8 | 12.9 | 0.00 | 0.00 | 0.00 | 69 | 1016.0 |
| 20260506154516 | 11 | 38 | 9.7 | 24.1 | 0.00 | 0.00 | 0.00 | 70 | 1015.8 |
| 20260506152329 | 11 | 86 | 6.4 | 20.9 | 0.00 | 0.00 | 0.00 | 72 | 1015.6 |
| 20260506150828 | 10 | 66 | 6.4 | 24.1 | 0.00 | 0.00 | 0.00 | 73 | 1015.3 |
| 20260506145329 | 10 | 37 | 8.0 | 29.0 | 0.00 | 0.00 | 0.00 | 74 | 1014.9 |
| 20260506143829 | 10 | 77 | 9.7 | 30.6 | 0.00 | 0.00 | 0.00 | 76 | 1014.5 |
| 20260506143024 | 9 | 12 | 8.0 | 25.7 | 0.00 | 0.00 | 0.00 | 78 | 1014.1 |
| 20260506140829 | 9 | 6 | 11.3 | 27.4 | 0.00 | 0.00 | 0.00 | 78 | 1014.3 |
| 20260506140023 | 9 | 124 | 9.7 | 24.1 | 0.00 | 0.00 | 0.00 | 78 | 1014.3 |
| 20260506133828 | 9 | 59 | 9.7 | 24.1 | 0.00 | 0.00 | 0.00 | 79 | 1014.4 |
| 20260506133028 | 8 | 83 | 9.7 | 24.1 | 0.00 | 0.00 | 0.00 | 78 | 1014.5 |
| 20260506130829 | 8 | 10 | 9.7 | 25.7 | 0.00 | 0.00 | 0.00 | 81 | 1014.8 |
| 20260506125328 | 8 | 1 | 9.7 | 20.9 | 0.00 | 0.00 | 0.00 | 82 | 1014.6 |
| 20260506124524 | 8 | 53 | 11.3 | 25.7 | 0.00 | 0.00 | 0.00 | 82 | 1014.4 |
| 20260506122328 | 8 | 51 | 9.7 | 24.1 | 0.00 | 0.00 | 0.00 | 82 | 1014.1 |
| 20260506122240 | 8 | 31 | 8.0 | 22.5 | 0.00 | 0.00 | 0.00 | 82 | 1013.5 |
| 20260506115328 | 8 | 21 | 9.7 | 27.4 | 0.00 | 0.00 | 0.00 | 81 | 1013.4 |
| 20260506114519 | 8 | 43 | 9.7 | 17.7 | 0.00 | 0.00 | 0.00 | 81 | 1013.5 |
| 20260506112328 | 8 | 35 | 9.7 | 19.3 | 0.00 | 0.00 | 0.00 | 81 | 1013.0 |
| 20260506110829 | 8 | 59 | 8.0 | 16.1 | 0.00 | 0.00 | 0.00 | 82 | 1013.1 |
| 20260506110026 | 8 | 41 | 6.4 | 12.9 | 0.00 | 0.00 | 0.00 | 82 | 1013.1 |
| 20260506103829 | 8 | 86 | 6.4 | 17.7 | 0.00 | 0.00 | 0.00 | 82 | 1013.7 |
| 20260506103028 | 8 | 47 | 6.4 | 14.5 | 0.00 | 0.00 | 0.00 | 81 | 1013.3 |
| 20260506100829 | 8 | 13 | 4.8 | 17.7 | 0.00 | 0.00 | 0.00 | 79 | 1013.5 |
| 20260506095328 | 8 | 24 | 6.4 | 16.1 | 0.00 | 0.00 | 0.00 | 78 | 1013.5 |
| 20260506093828 | 8 | 25 | 4.8 | 12.9 | 0.00 | 0.00 | 0.00 | 77 | 1013.2 |
| 20260506092328 | 8 | 40 | 8.0 | 19.3 | 0.00 | 0.00 | 0.00 | 76 | 1012.7 |
| 20260506090828 | 8 | 9 | 8.0 | 19.3 | 0.00 | 0.00 | 0.00 | 75 | 1012.5 |
| 20260506090030 | 8 | 26 | 8.0 | 22.5 | 0.00 | 0.00 | 0.00 | 74 | 1012.5 |
| 20260506083828 | 8 | 40 | 9.7 | 24.1 | 0.00 | 0.00 | 0.00 | 73 | 1012.2 |
| 20260506082329 | 8 | 49 | 9.7 | 20.9 | 0.00 | 0.00 | 0.00 | 73 | 1011.5 |
| 20260506080829 | 8 | 74 | 9.7 | 22.5 | 0.00 | 0.00 | 0.00 | 74 | 1011.5 |
| 20260506072329 | 8 | 18 | 6.4 | 20.9 | 0.00 | 0.00 | 0.00 | 74 | 1010.7 |
| 20260506070828 | 8 | 58 | 6.4 | 19.3 | 0.00 | 0.00 | 0.00 | 74 | 1010.8 |
| 20260506062330 | 8 | 69 | 6.4 | 17.7 | 0.00 | 0.00 | 0.00 | 71 | 1010.8 |
| 20260506061527 | 8 | 91 | 6.4 | 20.9 | 0.00 | 0.00 | 0.00 | 71 | 1010.9 |
| 20260506050829 | 8 | 49 | 9.7 | 25.7 | 0.00 | 0.00 | 0.00 | 75 | 1010.7 |
| 20260506043829 | 8 | 56 | 11.3 | 24.1 | 0.00 | 0.00 | 0.00 | 78 | 1010.9 |
| 20260506042329 | 8 | 29 | 9.7 | 24.1 | 0.00 | 0.00 | 0.00 | 79 | 1011.0 |
| 20260506040829 | 8 | 39 | 11.3 | 24.1 | 0.00 | 0.00 | 0.00 | 80 | 1010.9 |
| 20260506040028 | 8 | 30 | 8.0 | 25.7 | 0.00 | 0.00 | 0.00 | 81 | 1010.8 |
| 20260506033830 | 8 | 37 | 8.0 | 24.1 | 0.00 | 0.00 | 0.00 | 83 | 1009.4 |
| 20260506032328 | 8 | 62 | 9.7 | 29.0 | 0.00 | 0.00 | 0.00 | 83 | 1009.1 |
| 20260506030829 | 8 | 82 | 11.3 | 30.6 | 0.00 | 0.00 | 0.00 | 84 | 1008.7 |
| 20260506025329 | 8 | 18 | 11.3 | 24.1 | 0.00 | 0.00 | 0.00 | 84 | 1008.4 |
| 20260506023828 | 9 | 18 | 11.3 | 24.1 | 0.00 | 0.00 | 0.00 | 84 | 1008.0 |